Location: Unspecified
(35.7250°N, 0.0000°E)
Time: 11:00:07
(UTC+00:00)

Explorer 7 - Pass Details

Date: 23 June 2019
Orbit: 485 x 680 km, 50.3° (Epoch: 23 July)

Event Time Altitude Azimuth Distance (km) Brightness Sun altitude
Rises 13:47:38 0° 314° (NW) 2,959 10.7 64.1°
Reaches altitude 10° 13:50:04 10° 322° (NW) 2,070 10.0 63.6°
Maximum altitude 13:54:36 40° 32° (NNE) 996 8.4 62.8°
Drops below altitude 10° 13:59:12 10° 101° (ESE) 2,111 9.7 61.9°
Sets 14:01:42 0° 109° (ESE) 3,024 10.4 61.4°
